[[{"header":{"parameterUnit":"m.s-1","parameterCategory":1,"la1":30.2991,"la2":30.254,"lo1":-89.0895,"lo2":-89.0444,"dy":0.0017,"dx":0.0017,"nx":28,"ny":28,"refTime":"2024-09-27T03:00:00:Z","depth":0,"parameterNumber":2,"parameterNumberName":"U-component_of_WINDS"},"data":[0,0,0,0,0,0,0,0,0,0,0,0,0,0,0,0,0,0,0,0,0,0,0,0,0,0,0,0,0,0,0,0,0,0,0,0,0,0,0,0,0,0,0,0,0,0,0,0,0,0,0,0,0,0,0,0,0,0,6.9091,6.9093,0,6.9296,6.9299,6.9301,6.9238,6.9234,6.923,6.9226,6.9437,6.9446,6.9456,0,0,0,0,0,0,0,0,0,0,0,0,0,6.8647,6.8656,6.9091,6.9094,6.9096,6.9296,6.9299,6.9302,6.9239,6.9234,6.9229,6.9224,6.9434,6.9445,6.9457,0,0,0,0,0,0,0,0,0,0,0,0,0,6.8845,6.8658,6.9091,6.9089,6.9091,6.9295,6.9299,6.9302,6.924,6.9234,6.9227,6.9221,6.943,6.9444,6.9458,6.9677,0,0,6.9503,6.9509,0,0,0,0,0,0,0,0,6.8834,6.8861,6.9087,6.909,6.9092,6.9235,6.922,6.9428,6.9242,6.9184,6.9226,6.9218,6.9375,6.9394,6.9446,6.9687,6.9696,6.9504,6.9513,6.9519,6.9523,0,0,0,0,0,0,0,6.882,6.8852,6.9172,6.909,6.9094,6.9079,6.91,6.9259,6.9313,6.9188,6.9184,6.9209,6.9375,6.9433,6.9451,6.9699,6.9503,6.9516,6.9525,6.9531,7.0131,7.0138,0,0,0,0,0,0,6.8804,6.8841,6.9166,6.9178,6.8944,6.9092,6.9116,6.9196,6.9311,6.9323,6.9215,6.9206,6.9411,6.9434,6.9458,6.9723,6.9519,6.9532,6.9541,7.0123,7.0132,7.014,0,0,0,0,0,0,6.8795,6.8834,6.9157,6.9009,6.9049,6.9107,6.9197,6.9203,6.926,6.9331,6.9341,6.9263,6.9407,6.9438,6.9623,6.9729,6.9539,6.9552,7.0115,7.0126,7.0136,7.0252,0,0,0,0,0,0,6.8783,6.8831,6.8914,6.9011,6.9057,6.9319,6.9204,6.9212,6.9285,6.9276,6.9379,6.939,6.9404,6.9602,6.9638,6.9745,6.9563,7.0106,7.012,7.0133,7.0239,7.0266,7.0289,0,0,0,0,0,6.8767,6.8939,6.8919,6.8958,6.9162,6.9325,6.9351,6.9364,6.9294,6.9379,6.9424,6.9387,6.9712,6.9622,6.9661,6.9775,7.0099,7.0116,7.0132,7.0228,7.0261,7.0288,0,0,0,0,0,0,6.8853,6.8951,6.893,6.9138,6.9224,6.9314,6.9421,6.9398,6.9505,6.9491,6.9502,6.9527,6.9717,6.9764,6.9662,6.9993,6.9895,6.992,6.9955,6.9987,7.0011,6.9995,6.9575,0,0,0,0,0,6.8896,6.9019,6.9099,6.9275,6.9319,6.9363,6.9434,6.9437,6.9526,6.9562,6.9621,6.9709,6.9831,6.9911,7.0028,7.0246,7.0268,7.0344,7.0369,7.0388,7.041,7.053,7.0565,7.0194,7.0194,7.0193,0,0,6.8986,6.9055,6.9132,6.9294,6.936,6.9489,6.9394,6.9533,6.9629,6.9583,6.9762,6.9809,6.9908,7.0112,7.0204,7.0157,7.0518,7.0409,7.0425,7.0435,7.0551,7.0586,7.0617,7.0205,7.0203,7.0201,0,0,6.9216,6.9281,6.9435,6.9504,6.9606,6.9634,6.9671,6.9766,6.9795,6.9975,6.9943,7.0058,7.0267,7.034,7.0404,7.0664,7.0634,7.0701,7.083,7.0947,7.0976,7.1002,7.1096,7.1129,7.0723,7.0723,7.0723,0,6.9315,6.9507,6.9517,6.966,6.9732,6.9697,6.9854,6.992,7.0055,7.0106,7.0052,7.0315,7.0379,7.06,7.0663,7.0716,7.076,7.0689,7.0971,7.0997,7.1022,7.1111,7.1146,7.0731,7.073,7.0729,7.0728,0,6.9625,6.9759,6.9871,7.0002,7.0087,7.0237,7.027,7.0355,7.035,7.0385,7.0569,7.0645,7.0777,7.0829,7.0826,7.105,7.1018,7.0967,7.0869,7.1065,7.1149,7.1183,7.0741,7.0739,7.0736,7.0735,0,0,6.9914,7.0049,7.0091,7.015,7.0261,7.0365,7.0513,7.0642,7.0715,7.081,7.0935,7.1114,7.1068,7.1141,7.1146,7.1249,7.1451,7.1186,7.1189,7.1233,7.1704,7.1741,7.178,7.1432,7.1438,7.1444,7.1695,0,7.0154,7.0414,7.0427,7.0664,7.0788,7.0757,7.0886,7.0969,7.1005,7.1116,7.1157,7.1284,7.1214,7.1258,7.1358,7.1405,7.1546,7.1387,7.1549,7.1555,7.1525,7.1824,7.1864,7.2098,7.1728,7.1734,7.1738,0,7.0468,7.0573,7.0822,7.0916,7.0968,7.1084,7.1204,7.131,7.1404,7.1423,7.1506,7.1496,7.1649,7.1546,7.1757,7.1649,7.1716,7.175,7.1759,7.1775,7.1658,7.1848,7.2172,7.2208,7.179,7.1785,7.1782,0,7.0655,7.0858,7.1033,7.1085,7.1199,7.1282,7.1333,7.142,7.1497,7.1602,7.1652,7.1773,7.184,7.1934,7.1958,7.1881,7.217,7.2068,7.2191,7.2191,7.2253,7.2249,7.2593,7.2296,7.2296,7.2295,7.2294,0,7.0921,7.1075,7.1119,7.1227,7.1399,7.1413,7.1583,7.1629,7.1707,7.1824,7.1804,7.1915,7.194,7.2055,7.2075,7.2248,7.2278,7.2299,7.2302,7.2301,7.2298,7.2345,7.2329,7.2305,7.2303,7.2301,7.2299,0,7.1159,7.1194,7.1384,7.1476,7.1503,7.1626,7.1705,7.181,7.1844,7.1992,7.2028,7.2082,7.2218,7.2251,7.2412,7.2426,7.263,7.2618,7.2598,7.2598,7.2719,7.2707,7.3105,7.3159,7.2826,7.283,7.2832,0,7.1327,7.1444,7.155,7.1627,7.1682,7.1806,7.1884,7.1904,7.1986,7.2102,7.2193,7.2326,7.2433,7.2651,7.2705,7.2829,7.282,7.2951,7.2838,7.2833,7.2822,7.2815,7.2827,7.2972,7.2976,7.2979,7.2981,0,7.1621,7.1633,7.1747,7.1868,7.1962,7.2057,7.2149,7.2213,7.2246,7.234,7.2478,7.2561,7.2726,7.2859,7.2983,7.3037,7.3016,7.3016,7.3051,7.3051,7.3035,7.3046,7.2657,7.3007,7.3004,7.3002,7.3001,7.3,7.183,7.1933,7.2024,7.2151,7.2222,7.2309,7.2411,7.2459,7.2574,7.2709,7.2714,7.2865,7.2956,7.3122,7.3183,7.3301,7.3261,7.3312,7.3325,7.3337,7.3348,7.3016,7.3324,7.3323,7.3323,7.3322,7.3321,0,7.2124,7.2181,7.2298,7.2427,7.2527,7.2498,7.2598,7.2684,7.2817,7.2904,7.301,7.3169,7.3298,7.3363,7.3491,7.3574,7.3567,7.3607,7.3601,7.3614,7.3376,7.3333,7.361,7.361,7.361,7.361,7.361,7.361,7.2289,7.2462,7.2485,7.2694,7.275,7.2897,7.2957,7.3037,7.3107,7.3285,7.3392,7.3433,7.3512,7.3646,7.3763,7.3779,7.3827,7.3872,7.3883,7.366,7.363,7.3602,7.3562,7.3882,7.3883,7.4111,7.4113,7.4115]},{"header":{"parameterUnit":"m.s-1","parameterCategory":1,"la1":30.2991,"la2":30.254,"lo1":-89.0895,"lo2":-89.0444,"dy":0.0017,"dx":0.0017,"nx":28,"ny":28,"refTime":"2024-09-27T03:00:00:Z","depth":0,"parameterNumber":3,"parameterNumberName":"V-component_of_WINDS"},"data":[0,0,0,0,0,0,0,0,0,0,0,0,0,0,0,0,0,0,0,0,0,0,0,0,0,0,0,0,0,0,0,0,0,0,0,0,0,0,0,0,0,0,0,0,0,0,0,0,0,0,0,0,0,0,0,0,0,0,-3.7908,-3.7909,0,-3.8048,-3.8049,-3.8051,-3.8033,-3.8031,-3.8028,-3.8026,-3.8171,-3.8177,-3.8183,0,0,0,0,0,0,0,0,0,0,0,0,0,-3.7627,-3.7632,-3.7907,-3.7909,-3.7911,-3.8047,-3.8049,-3.8051,-3.8033,-3.8031,-3.8028,-3.8025,-3.8169,-3.8176,-3.8184,0,0,0,0,0,0,0,0,0,0,0,0,0,-3.7756,-3.7634,-3.7907,-3.7918,-3.7921,-3.8047,-3.8049,-3.8052,-3.8034,-3.8031,-3.8027,-3.8024,-3.8167,-3.8176,-3.8185,-3.8309,0,0,-3.8212,-3.8216,0,0,0,0,0,0,0,0,-3.7749,-3.7766,-3.7915,-3.7918,-3.7921,-3.8019,-3.8003,-3.8138,-3.8035,-3.7991,-3.8026,-3.8022,-3.8124,-3.8136,-3.817,-3.8316,-3.8322,-3.8213,-3.8218,-3.8222,-3.8225,0,0,0,0,0,0,0,-3.774,-3.776,-3.7963,-3.7917,-3.7921,-3.7917,-3.7932,-3.8029,-3.8075,-3.7995,-3.7994,-3.801,-3.8125,-3.8161,-3.8173,-3.8324,-3.8213,-3.8221,-3.8226,-3.823,-3.858,-3.8583,0,0,0,0,0,0,-3.7728,-3.7753,-3.7958,-3.7967,-3.7825,-3.7925,-3.7941,-3.7991,-3.8074,-3.8083,-3.8013,-3.8009,-3.8147,-3.8163,-3.8178,-3.833,-3.8222,-3.8231,-3.8236,-3.8576,-3.858,-3.8585,0,0,0,0,0,0,-3.7722,-3.7746,-3.7953,-3.786,-3.7886,-3.7934,-3.799,-3.7996,-3.8032,-3.8088,-3.8096,-3.8042,-3.8145,-3.8165,-3.8277,-3.8334,-3.8235,-3.8243,-3.8571,-3.8577,-3.8583,-3.8633,0,0,0,0,0,0,-3.7714,-3.7744,-3.7791,-3.7861,-3.7891,-3.8048,-3.7993,-3.8001,-3.8048,-3.8044,-3.8117,-3.8126,-3.8144,-3.8263,-3.8285,-3.8345,-3.825,-3.8566,-3.8574,-3.8581,-3.8626,-3.864,-3.8651,0,0,0,0,0,-3.7704,-3.78,-3.7794,-3.7819,-3.7951,-3.8052,-3.8069,-3.8087,-3.8052,-3.8101,-3.8136,-3.8124,-3.8324,-3.8275,-3.83,-3.8363,-3.8563,-3.8572,-3.858,-3.8621,-3.8637,-3.8651,0,0,0,0,0,0,-3.7737,-3.7809,-3.7803,-3.7925,-3.7982,-3.8048,-3.811,-3.8104,-3.8173,-3.8166,-3.8187,-3.8204,-3.8316,-3.8351,-3.8294,-3.8488,-3.8439,-3.8453,-3.8461,-3.8477,-3.8489,-3.8479,-3.8257,0,0,0,0,0,-3.7758,-3.7833,-3.7893,-3.7994,-3.8023,-3.8062,-3.8106,-3.8116,-3.8176,-3.8201,-3.8244,-3.8304,-3.8381,-3.8431,-3.8504,-3.8631,-3.8647,-3.8687,-3.8699,-3.8709,-3.8721,-3.8792,-3.8811,-3.8614,-3.8613,-3.8613,0,0,-3.7803,-3.7852,-3.7898,-3.8002,-3.8048,-3.8126,-3.8082,-3.8167,-3.8225,-3.8214,-3.8321,-3.8356,-3.8424,-3.8543,-3.8598,-3.8575,-3.8779,-3.872,-3.8728,-3.8735,-3.8803,-3.8822,-3.8838,-3.862,-3.8618,-3.8617,0,0,-3.7924,-3.7969,-3.8059,-3.8105,-3.8174,-3.8199,-3.8221,-3.8289,-3.8311,-3.8419,-3.8412,-3.8482,-3.8613,-3.8663,-3.8705,-3.8846,-3.8837,-3.8869,-3.8934,-3.9003,-3.9019,-3.9032,-3.9084,-3.9102,-3.8881,-3.8881,-3.8881,0,-3.7972,-3.8089,-3.8106,-3.8191,-3.8238,-3.823,-3.8322,-3.8366,-3.8456,-3.8489,-3.8462,-3.8627,-3.8672,-3.8804,-3.8838,-3.8872,-3.8898,-3.8861,-3.9015,-3.9029,-3.9042,-3.9091,-3.911,-3.8885,-3.8884,-3.8884,-3.8883,0,-3.8144,-3.8225,-3.8289,-3.8376,-3.8429,-3.8518,-3.8549,-3.8601,-3.8606,-3.8634,-3.8745,-3.8799,-3.8884,-3.8915,-3.8921,-3.9048,-3.9032,-3.901,-3.8961,-3.9064,-3.9111,-3.9129,-3.889,-3.8888,-3.8887,-3.8886,0,0,-3.829,-3.8385,-3.8408,-3.8448,-3.8524,-3.8588,-3.8676,-3.8758,-3.8803,-3.8866,-3.8941,-3.9052,-3.9032,-3.908,-3.9091,-3.9151,-3.9261,-3.9122,-3.9124,-3.9146,-3.9405,-3.9422,-3.9443,-3.9255,-3.9259,-3.9262,-3.94,0,-3.842,-3.8575,-3.8593,-3.8732,-3.8807,-3.8802,-3.8879,-3.8934,-3.8963,-3.9032,-3.9064,-3.9143,-3.911,-3.9139,-3.9198,-3.9235,-3.9313,-3.9225,-3.9326,-3.933,-3.931,-3.9468,-3.9486,-3.9613,-3.9418,-3.9421,-3.9423,0,-3.8592,-3.8659,-3.8805,-3.8871,-3.8903,-3.8972,-3.9049,-3.9115,-3.9178,-3.9195,-3.9249,-3.9253,-3.9345,-3.9292,-3.942,-3.936,-3.9402,-3.9427,-3.9432,-3.9443,-3.9383,-3.9483,-3.9654,-3.9674,-3.9452,-3.945,-3.9448,0,-3.8685,-3.8811,-3.8915,-3.8949,-3.9029,-3.9077,-3.9113,-3.9173,-3.9221,-3.9289,-3.9321,-3.9399,-3.9442,-3.9502,-3.9527,-3.9487,-3.9654,-3.9604,-3.9672,-3.9671,-3.9708,-3.9705,-3.9889,-3.9734,-3.9734,-3.9733,-3.9733,0,-3.8828,-3.8918,-3.8958,-3.9022,-3.9123,-3.9143,-3.9243,-3.9276,-3.933,-3.9401,-3.9401,-3.9468,-3.9496,-3.9568,-3.9588,-3.9692,-3.9711,-3.9728,-3.9732,-3.9728,-3.9726,-3.9757,-3.9749,-3.9739,-3.9737,-3.9736,-3.9736,0,-3.8949,-3.898,-3.9093,-3.9159,-3.9177,-3.9249,-3.9306,-3.9368,-3.9396,-3.9486,-3.9508,-3.9553,-3.9637,-3.9668,-3.9771,-3.9785,-3.9905,-3.9902,-3.9883,-3.9885,-3.9951,-3.9945,-4.0162,-4.0191,-4.0016,-4.0018,-4.0019,0,-3.9039,-3.9108,-3.9181,-3.9228,-3.9265,-3.9342,-3.9391,-3.9414,-3.9466,-3.9543,-3.9597,-3.968,-3.9749,-3.9885,-3.9927,-4.0006,-4.0005,-4.0075,-4.0017,-4.0011,-4.0007,-4.0003,-4.001,-4.0086,-4.0088,-4.009,-4.0091,0,-3.9196,-3.9207,-3.9278,-3.9355,-3.9413,-3.9475,-3.9535,-3.9574,-3.9605,-3.9664,-3.975,-3.9803,-3.9908,-3.9992,-4.0073,-4.0111,-4.0107,-4.0109,-4.0129,-4.0126,-4.0113,-4.0122,-3.9914,-4.0104,-4.0103,-4.0102,-4.0101,-4.01,-3.9305,-3.9366,-3.9427,-3.9506,-3.9553,-3.9609,-3.9671,-3.9706,-3.9778,-3.9865,-3.9874,-3.9968,-4.003,-4.0138,-4.018,-4.0254,-4.0235,-4.0263,-4.0271,-4.0278,-4.0283,-4.01,-4.0268,-4.0268,-4.0268,-4.0267,-4.0267,0,-3.9462,-3.9501,-3.9573,-3.9656,-3.9719,-3.9709,-3.9774,-3.9828,-3.9909,-3.9967,-4.0034,-4.0134,-4.0215,-4.0264,-4.0346,-4.0396,-4.0396,-4.0416,-4.0413,-4.0422,-4.0295,-4.027,-4.0415,-4.0415,-4.0415,-4.0415,-4.0415,-4.0415,-3.9551,-3.9654,-3.9673,-3.98,-3.9839,-3.9929,-3.9967,-4.0019,-4.0066,-4.0177,-4.0244,-4.0275,-4.0329,-4.0415,-4.049,-4.0502,-4.0533,-4.0555,-4.0566,-4.0446,-4.0431,-4.0417,-4.0393,-4.0562,-4.0562,-4.0687,-4.0688,-4.0689]}]]